Good Hope, IL

3:36 PM CDT on September 30, 2016 (GMT -0500)
Macomb Municipal

Weather History for KMQB - March, 2014

Change the Weather History Date:

Wednesday, March 12, 2014

  Actual Average (KBRL) Record (KBRL)
Temperature  
Mean Temperature 30 °F 40 °F  
Max Temperature 34 °F 49 °F 80 °F (1990)
Min Temperature 27 °F 30 °F -2 °F (1948)
Degree Days  
Heating Degree Days 34 25  
Month to date heating degree days 332  
Since 1 July heating degree days 4710  
Cooling Degree Days 0 0  
Month to date cooling degree days 0  
Year to date cooling degree days 0  
Moisture  
Dew Point 28 °F    
Average Humidity 85    
Maximum Humidity 100    
Minimum Humidity 66    
Precipitation  
Precipitation 0.20 in 0.08 in 1.54 in (1991)
Month to date precipitation 1.02  
Year to date precipitation 3.88  
Sea Level Pressure  
Sea Level Pressure 29.99 in    
Wind  
Wind Speed 18 mph (NW)    
Max Wind Speed 24 mph    
Max Gust Speed 31 mph    
Visibility 9 miles    
Events Rain , Snow    
T = Trace of Precipitation, MM = Missing Value Source: NWS Daily Summary

Daily Weather History Graph

Daily Weather History Graph

Search for Another Location

Airport or City:

Trip Planner

Search our weather history database for the weather conditions in past years. The results will help you decide how hot, cold, wet, or windy it might be!

Date:

Astronomy

Mar. 12, 2014 Rise Set
Actual Time 7:19 AM CDT 7:06 PM CDT
Civil Twilight 6:51 AM CDT 7:33 PM CDT
Nautical Twilight 6:20 AM CDT 8:05 PM CDT
Astronomical Twilight 5:48 AM CDT 8:37 PM CDT
Moon 3:36 PM CDT (3/12) 4:51 AM CDT (3/12)
Length of Visible Light 12h 41m
Length of Day
11h 47m
Waxing Gibbous, 85% of the Moon is Illuminated
Mar 12
Waxing Gibbous
Mar 16
Full
Mar 23
Last Quarter
Mar 30
New
Apr 7
First Quarter

Hourly Weather History & Observations

Time (CDT) Temp. Windchill Dew Point Humidity Pressure Visibility Wind Dir Wind Speed Gust Speed Precip Events Conditions
12:15 AM 32.5 °F 19.6 °F 32.5 °F 100% 29.74 in 5.0 mi North 24.2 mph 31.1 mph 0.02 in Rain Light Rain
12:35 AM 32.5 °F 20.8 °F 32.5 °F 100% 29.76 in 3.0 mi North 19.6 mph 29.9 mph 0.06 in Snow Light Snow
12:55 AM 32.4 °F 21.3 °F 32.4 °F 100% 29.77 in 2.5 mi North 17.3 mph 23.0 mph 0.08 in Snow Light Snow
1:15 AM 32.2 °F 21.1 °F 32.2 °F 100% 29.75 in 2.0 mi North 17.3 mph 23.0 mph 0.02 in Snow Light Snow
1:35 AM 32.4 °F 20.9 °F 32.4 °F 100% 29.77 in 2.5 mi NNW 18.4 mph 25.3 mph 0.07 in Snow Light Snow
1:55 AM 32.4 °F 21.3 °F 32.4 °F 100% 29.77 in 1.8 mi NNW 17.3 mph 24.2 mph 0.10 in Snow Light Snow
2:15 AM 32.4 °F 20.3 °F 32.4 °F 100% 29.78 in 1.5 mi NNW 20.7 mph 25.3 mph 0.01 in Snow Light Snow
2:35 AM 32.5 °F 21.5 °F 32.5 °F 100% 29.77 in 5.0 mi NNW 17.3 mph 24.2 mph 0.02 in Snow Light Snow
2:55 AM 32.4 °F 20.9 °F 32.4 °F 100% 29.77 in 10.0 mi North 18.4 mph 24.2 mph 0.02 in Rain Light Rain
3:15 AM 32.5 °F 21.2 °F 32.5 °F 100% 29.77 in 5.0 mi NNW 18.4 mph 27.6 mph N/A Snow Light Snow
3:35 AM 32.5 °F 20.5 °F 32.5 °F 100% 29.79 in 3.0 mi NNW 20.7 mph 26.5 mph N/A Snow Light Snow
3:55 AM 32.4 °F 20.3 °F 32.4 °F 100% 29.79 in 4.0 mi NNW 20.7 mph 25.3 mph N/A Snow Light Snow
4:15 AM 32.4 °F 20.9 °F 32.4 °F 100% 29.79 in 4.0 mi NNW 18.4 mph - N/A Snow Light Snow
4:35 AM 32.2 °F 21.4 °F 32.2 °F 100% 29.80 in 7.0 mi NNW 16.1 mph - N/A Snow Light Snow
4:55 AM 32.2 °F 22.7 °F 32.2 °F 100% 29.81 in 10.0 mi NW 12.7 mph - N/A   Overcast
5:15 AM 32.0 °F 21.6 °F 32.0 °F 100% 29.83 in 10.0 mi NW 15.0 mph - N/A   Overcast
5:35 AM 32.0 °F 20.8 °F 32.0 °F 100% 29.84 in 10.0 mi NW 17.3 mph 24.2 mph N/A   Overcast
5:55 AM 32.0 °F 20.5 °F 32.0 °F 100% 29.85 in 10.0 mi NNW 18.4 mph - N/A   Overcast
6:15 AM 32.0 °F 20.8 °F 32.0 °F 100% 29.86 in 10.0 mi NNW 17.3 mph - N/A   Overcast
6:35 AM 32.0 °F 20.8 °F 32.0 °F 100% 29.87 in 10.0 mi NNW 17.3 mph - N/A   Overcast
6:55 AM 31.8 °F 20.2 °F 31.8 °F 100% 29.88 in 10.0 mi NNW 18.4 mph 24.2 mph N/A   Overcast
7:15 AM 31.8 °F 20.2 °F 31.8 °F 100% 29.90 in 10.0 mi NNW 18.4 mph 23.0 mph N/A   Overcast
7:35 AM 31.8 °F 21.0 °F 31.8 °F 100% 29.92 in 10.0 mi NNW 16.1 mph 23.0 mph N/A   Overcast
7:55 AM 31.6 °F 20.4 °F 31.6 °F 100% 29.93 in 10.0 mi NNW 17.3 mph 21.9 mph N/A   Overcast
8:15 AM 31.6 °F 19.7 °F 31.6 °F 100% 29.94 in 10.0 mi NNW 19.6 mph - N/A   Overcast
8:35 AM 31.6 °F 20.4 °F 29.3 °F 91% 29.95 in 10.0 mi NNW 17.3 mph 25.3 mph N/A   Overcast
8:55 AM 31.5 °F 18.8 °F 27.7 °F 86% 29.97 in 10.0 mi NNW 21.9 mph - N/A   Overcast
9:15 AM 31.1 °F 19.3 °F 27.5 °F 87% 29.97 in 10.0 mi NW 18.4 mph - N/A   Overcast
9:35 AM 31.1 °F 18.9 °F 26.6 °F 83% 29.98 in 10.0 mi NW 19.6 mph 25.3 mph N/A   Overcast
9:55 AM 31.1 °F 19.7 °F 25.7 °F 80% 30.00 in 10.0 mi NNW 17.3 mph 23.0 mph N/A   Overcast
10:15 AM 31.1 °F 19.3 °F 25.7 °F 80% 30.00 in 10.0 mi NW 18.4 mph 23.0 mph N/A   Overcast
10:35 AM 31.6 °F 20.4 °F 24.8 °F 76% 30.01 in 10.0 mi NW 17.3 mph 21.9 mph N/A   Scattered Clouds
10:55 AM 32.0 °F 21.6 °F 26.1 °F 79% 30.01 in 10.0 mi NW 15.0 mph - N/A   Scattered Clouds
11:15 AM 32.0 °F 20.8 °F 25.9 °F 78% 30.01 in 10.0 mi NW 17.3 mph 24.2 mph N/A   Scattered Clouds
11:35 AM 32.0 °F 20.5 °F 26.8 °F 81% 30.02 in 10.0 mi NW 18.4 mph 25.3 mph N/A   Clear
11:55 AM 32.0 °F 19.5 °F 26.8 °F 81% 30.03 in 10.0 mi NW 21.9 mph 27.6 mph N/A   Clear
12:15 PM 32.4 °F 20.0 °F 27.7 °F 83% 30.04 in 10.0 mi NW 21.9 mph 27.6 mph N/A   Clear
12:35 PM 32.5 °F 20.8 °F 27.0 °F 80% 30.05 in 10.0 mi NW 19.6 mph 26.5 mph N/A   Scattered Clouds
1:15 PM 32.5 °F 20.2 °F 26.4 °F 78% 30.05 in 10.0 mi NW 21.9 mph 29.9 mph N/A   Overcast
1:35 PM 32.7 °F 21.4 °F 26.1 °F 76% 30.05 in 10.0 mi NW 18.4 mph 24.2 mph N/A   Overcast
1:55 PM 32.9 °F 21.0 °F 26.8 °F 78% 30.05 in 10.0 mi NW 20.7 mph 24.2 mph N/A   Mostly Cloudy
2:15 PM 33.3 °F 21.5 °F 26.8 °F 77% 30.05 in 10.0 mi NW 20.7 mph 26.5 mph N/A   Scattered Clouds
2:35 PM 33.1 °F 21.5 °F 26.6 °F 77% 30.05 in 10.0 mi NW 19.6 mph - N/A   Scattered Clouds
2:55 PM 33.1 °F 21.5 °F 26.6 °F 77% 30.06 in 10.0 mi NW 19.6 mph 25.3 mph N/A   Mostly Cloudy
3:15 PM 32.7 °F 20.7 °F 25.2 °F 74% 30.06 in 10.0 mi NW 20.7 mph 26.5 mph N/A   Overcast
3:35 PM 32.9 °F 21.3 °F 25.3 °F 74% 30.07 in 10.0 mi NW 19.6 mph 27.6 mph N/A   Overcast
3:55 PM 33.1 °F 20.6 °F 25.3 °F 73% 30.08 in 10.0 mi NW 23.0 mph 26.5 mph N/A   Overcast
4:15 PM 34.0 °F 21.8 °F 26.2 °F 73% 30.08 in 10.0 mi NW 23.0 mph 26.5 mph N/A   Overcast
4:35 PM 33.8 °F 22.5 °F 25.5 °F 72% 30.08 in 10.0 mi WNW 19.6 mph 26.5 mph N/A   Mostly Cloudy
4:55 PM 33.8 °F 22.8 °F 24.8 °F 70% 30.08 in 10.0 mi NW 18.4 mph 25.3 mph N/A   Scattered Clouds
5:15 PM 33.1 °F 22.2 °F 23.9 °F 69% 30.09 in 10.0 mi NW 17.3 mph 24.2 mph N/A   Clear
5:35 PM 33.3 °F 22.8 °F 25.2 °F 72% 30.10 in 10.0 mi NW 16.1 mph - N/A   Scattered Clouds
5:55 PM 33.3 °F 21.2 °F 23.5 °F 68% 30.10 in 10.0 mi NW 21.9 mph 26.5 mph N/A   Clear
6:15 PM 32.9 °F 21.6 °F 22.8 °F 66% 30.10 in 10.0 mi NW 18.4 mph 21.9 mph N/A   Clear
6:35 PM 32.4 °F 22.5 °F 23.4 °F 69% 30.11 in 10.0 mi NW 13.8 mph - N/A   Scattered Clouds
6:55 PM 32.0 °F 22.1 °F 23.4 °F 70% 30.12 in 10.0 mi NW 13.8 mph - N/A   Scattered Clouds
7:15 PM 32.0 °F 23.0 °F 23.0 °F 69% 30.13 in 10.0 mi NW 11.5 mph - N/A   Clear
7:35 PM 31.8 °F 22.8 °F 23.2 °F 70% 30.13 in 10.0 mi NW 11.5 mph - N/A   Clear
7:55 PM 31.5 °F 21.8 °F 23.4 °F 72% 30.13 in 10.0 mi NW 12.7 mph 17.3 mph N/A   Clear
8:15 PM 30.7 °F 23.3 °F 23.9 °F 76% 30.13 in 10.0 mi NW 8.1 mph - N/A   Clear
8:35 PM 29.7 °F 23.7 °F 24.8 °F 82% 30.14 in 10.0 mi NW 5.8 mph - N/A   Clear
8:55 PM 29.7 °F 23.7 °F 23.9 °F 79% 30.14 in 10.0 mi NW 5.8 mph - N/A   Clear
9:15 PM 29.5 °F 23.4 °F 23.2 °F 77% 30.15 in 10.0 mi NW 5.8 mph - N/A   Clear
9:35 PM 28.6 °F 22.4 °F 23.2 °F 80% 30.15 in 10.0 mi NW 5.8 mph - N/A   Clear
9:55 PM 28.4 °F 23.3 °F 23.0 °F 80% 30.16 in 10.0 mi NW 4.6 mph - N/A   Clear
10:15 PM 27.5 °F 21.1 °F 23.9 °F 86% 30.16 in 10.0 mi WNW 5.8 mph - N/A   Clear
10:35 PM 27.5 °F 20.2 °F 23.4 °F 84% 30.16 in 10.0 mi WNW 6.9 mph - N/A   Clear
10:55 PM 27.0 °F 19.5 °F 23.5 °F 87% 30.15 in 10.0 mi NW 6.9 mph - N/A   Clear
11:15 PM 27.3 °F 20.9 °F 23.0 °F 84% 30.14 in 10.0 mi NW 5.8 mph - N/A   Clear
11:35 PM 27.0 °F 20.5 °F 22.8 °F 84% 30.14 in 10.0 mi NW 5.8 mph - N/A   Clear
11:55 PM 27.1 °F 20.7 °F 22.1 °F 81% 30.14 in 10.0 mi NW 5.8 mph - N/A   Clear